Savoonga, AK

4:35 AM AKST on February 24, 2017 (GMT -0900)
Savoonga

Weather History for PASA - August, 2013

Change the Weather History Date:

Friday, August 16, 2013

  Actual Average Record
Temperature  
Mean Temperature 42 °F -  
Max Temperature 42 °F 48 °F 60 °F (1999)
Min Temperature 41 °F 41 °F 35 °F (2001)
Degree Days  
Heating Degree Days 24    
Moisture  
Dew Point 39 °F    
Average Humidity 88    
Maximum Humidity 93    
Minimum Humidity 81    
Precipitation  
Precipitation 0.00 in - - ()
Sea Level Pressure  
Sea Level Pressure 29.90 in    
Wind  
Wind Speed 5 mph (North)    
Max Wind Speed 12 mph    
Max Gust Speed -    
Visibility 7 miles    
Events      
Averages and records for this station are not official NWS values.
T = Trace of Precipitation, MM = Missing Value Source: NWS Daily Summary

Daily Weather History Graph

Daily Weather History Graph

Search for Another Location

Airport or City:

Trip Planner

Search our weather history database for the weather conditions in past years. The results will help you decide how hot, cold, wet, or windy it might be!

Date:

Astronomy

Aug. 16, 2013 Rise Set
Actual Time 7:20 AM AKDT 11:29 PM AKDT
Civil Twilight 6:18 AM AKDT 12:30 AM AKDT
Nautical Twilight 4:21 AM AKDT 2:20 AM AKDT
Astronomical Twilight Sun does not rise Sun does not rise
Moon 8:48 PM AKDT (8/16) 1:47 AM AKDT (8/16)
Length of Visible Light 18h 12m
Length of Day
16h 08m
Waxing Gibbous, 76% of the Moon is Illuminated
Aug 16
Waxing Gibbous
Aug 20
Full
Aug 28
Last Quarter
Sep 5
New
Sep 12
First Quarter

Hourly Weather History & Observations

Time (AKDT) Temp. Windchill Dew Point Humidity Pressure Visibility Wind Dir Wind Speed Gust Speed Precip Events Conditions
12:16 AM 42.8 °F - 41.0 °F 93% 29.90 in 1.0 mi Calm Calm - N/A   Overcast
12:36 AM 42.8 °F - 41.0 °F 93% 29.90 in 1.8 mi Calm Calm - N/A   Overcast
12:56 AM 42.8 °F - 41.0 °F 93% 29.90 in 2.5 mi Calm Calm - N/A   Overcast
1:16 AM 42.8 °F - 41.0 °F 93% 29.90 in 3.0 mi Calm Calm - N/A   Overcast
1:36 AM 42.8 °F - 41.0 °F 93% 29.90 in 2.0 mi Calm Calm - N/A   Overcast
1:56 AM 42.8 °F - 41.0 °F 93% 29.89 in 2.0 mi Calm Calm - N/A   Overcast
2:16 AM 42.8 °F 41.1 °F 39.2 °F 87% 29.89 in 5.0 mi NE 3.5 mph - N/A   Overcast
2:36 AM 42.8 °F - 41.0 °F 93% 29.90 in 3.0 mi Calm Calm - N/A   Overcast
2:56 AM 42.8 °F 41.1 °F 39.2 °F 87% 29.90 in 2.5 mi NNE 3.5 mph - N/A   Overcast
3:16 AM 41.0 °F 38.0 °F 39.2 °F 93% 29.89 in 5.0 mi North 4.6 mph - N/A   Overcast
3:36 AM 41.0 °F - 39.2 °F 93% 29.89 in 7.0 mi Calm Calm - N/A   Overcast
3:56 AM 41.0 °F 38.0 °F 39.2 °F 93% 29.89 in 7.0 mi North 4.6 mph - N/A   Overcast
4:16 AM 41.0 °F 35.8 °F 39.2 °F 93% 29.89 in 6.0 mi NNE 8.1 mph - N/A   Overcast
4:36 AM 41.0 °F 35.8 °F 39.2 °F 93% 29.89 in 3.0 mi North 8.1 mph - N/A   Overcast
4:56 AM 41.0 °F 36.4 °F 39.2 °F 93% 29.89 in 0.8 mi NNE 6.9 mph - N/A   Overcast
5:16 AM 41.0 °F 38.0 °F 39.2 °F 93% 29.89 in 1.0 mi NE 4.6 mph - N/A   Overcast
5:36 AM 41.0 °F 37.1 °F 39.2 °F 93% 29.89 in 5.0 mi NNE 5.8 mph - N/A   Overcast
5:56 AM 41.0 °F 38.0 °F 39.2 °F 93% 29.89 in 10.0 mi North 4.6 mph - N/A   Overcast
6:16 AM 41.0 °F 35.8 °F 39.2 °F 93% 29.89 in 10.0 mi NNE 8.1 mph - N/A   Overcast
6:36 AM 41.0 °F 35.2 °F 39.2 °F 93% 29.89 in 7.0 mi NE 9.2 mph - N/A   Overcast
6:56 AM 41.0 °F 35.2 °F 39.2 °F 93% 29.89 in 7.0 mi NNE 9.2 mph - N/A   Overcast
7:16 AM 41.0 °F 34.7 °F 39.2 °F 93% 29.89 in 4.0 mi NNE 10.4 mph - N/A   Overcast
7:36 AM 41.0 °F 35.2 °F 39.2 °F 93% 29.90 in 3.0 mi NNE 9.2 mph - N/A   Overcast
7:56 AM 41.0 °F 35.8 °F 39.2 °F 93% 29.90 in 5.0 mi NNE 8.1 mph - N/A   Overcast
8:16 AM 41.0 °F 36.4 °F 39.2 °F 93% 29.90 in 8.0 mi NNE 6.9 mph - N/A   Overcast
8:36 AM 41.0 °F 35.8 °F 39.2 °F 93% 29.90 in 8.0 mi NNE 8.1 mph - N/A   Overcast
8:56 AM 41.0 °F 35.8 °F 39.2 °F 93% 29.90 in 3.0 mi North 8.1 mph - N/A   Overcast
9:16 AM 41.0 °F 35.8 °F 39.2 °F 93% 29.90 in 7.0 mi NNE 8.1 mph - N/A   Overcast
9:36 AM 41.0 °F 35.8 °F 39.2 °F 93% 29.90 in 2.0 mi North 8.1 mph - N/A   Overcast
9:56 AM 41.0 °F 34.7 °F 39.2 °F 93% 29.90 in 9.0 mi NNE 10.4 mph - N/A   Overcast
10:16 AM 41.0 °F 35.2 °F 39.2 °F 93% 29.91 in 10.0 mi NNE 9.2 mph - N/A   Overcast
10:36 AM 41.0 °F 35.2 °F 39.2 °F 93% 29.91 in 7.0 mi North 9.2 mph - N/A   Overcast
10:56 AM 41.0 °F 34.7 °F 37.4 °F 87% 29.91 in 10.0 mi North 10.4 mph - N/A   Overcast
11:16 AM 41.0 °F 34.7 °F 39.2 °F 93% 29.91 in 10.0 mi NNE 10.4 mph - N/A   Overcast
11:36 AM 41.0 °F 35.2 °F 37.4 °F 87% 29.91 in 10.0 mi North 9.2 mph - N/A   Overcast
11:56 AM 41.0 °F 34.3 °F 37.4 °F 87% 29.91 in 10.0 mi North 11.5 mph - N/A   Overcast
12:16 PM 41.0 °F 35.8 °F 37.4 °F 87% 29.91 in 10.0 mi NNE 8.1 mph - N/A   Overcast
12:36 PM 42.8 °F 37.0 °F 37.4 °F 81% 29.91 in 10.0 mi North 10.4 mph - N/A   Overcast
12:56 PM 42.8 °F 38.0 °F 39.2 °F 87% 29.91 in 10.0 mi NE 8.1 mph - N/A   Overcast
1:16 PM 42.8 °F 37.5 °F 37.4 °F 81% 29.91 in 10.0 mi NNE 9.2 mph - N/A   Overcast
1:36 PM 42.8 °F 37.5 °F 37.4 °F 81% 29.91 in 10.0 mi NE 9.2 mph - N/A   Overcast
1:56 PM 42.8 °F 37.5 °F 39.2 °F 87% 29.91 in 8.0 mi NE 9.2 mph - N/A   Overcast
2:16 PM 41.0 °F 36.4 °F 37.4 °F 87% 29.91 in 4.0 mi North 6.9 mph - N/A   Overcast
2:36 PM 42.8 °F 38.0 °F 39.2 °F 87% 29.91 in 10.0 mi North 8.1 mph - N/A   Overcast
2:56 PM 42.8 °F 38.6 °F 39.2 °F 87% 29.91 in 3.0 mi North 6.9 mph - N/A   Overcast
3:16 PM 41.0 °F 36.4 °F 39.2 °F 93% 29.91 in 4.0 mi North 6.9 mph - N/A   Overcast
3:36 PM 42.8 °F 39.3 °F 39.2 °F 87% 29.91 in 7.0 mi North 5.8 mph - N/A   Overcast
3:56 PM 42.8 °F 38.6 °F 39.2 °F 87% 29.91 in 10.0 mi North 6.9 mph - N/A   Overcast
4:16 PM 42.8 °F 38.6 °F 39.2 °F 87% 29.91 in 10.0 mi North 6.9 mph - N/A   Overcast
4:36 PM 42.8 °F 38.6 °F 39.2 °F 87% 29.91 in 10.0 mi North 6.9 mph - N/A   Overcast
4:56 PM 42.8 °F 40.1 °F 39.2 °F 87% 29.91 in 10.0 mi North 4.6 mph - N/A   Overcast
5:16 PM 42.8 °F 40.1 °F 39.2 °F 87% 29.91 in 10.0 mi North 4.6 mph - N/A   Overcast
5:36 PM 42.8 °F 40.1 °F 39.2 °F 87% 29.90 in 10.0 mi North 4.6 mph - N/A   Overcast
5:56 PM 42.8 °F 39.3 °F 39.2 °F 87% 29.90 in 10.0 mi North 5.8 mph - N/A   Overcast
6:16 PM 42.8 °F 38.6 °F 39.2 °F 87% 29.90 in 10.0 mi North 6.9 mph - N/A   Overcast
6:36 PM 42.8 °F 38.6 °F 39.2 °F 87% 29.90 in 10.0 mi North 6.9 mph - N/A   Overcast
6:56 PM 42.8 °F 38.0 °F 39.2 °F 87% 29.90 in 10.0 mi North 8.1 mph - N/A   Overcast
7:16 PM 42.8 °F 38.0 °F 37.4 °F 81% 29.90 in 10.0 mi North 8.1 mph - N/A   Overcast
7:36 PM 42.8 °F 38.0 °F 37.4 °F 81% 29.90 in 10.0 mi North 8.1 mph - N/A   Overcast
7:56 PM 42.8 °F 38.6 °F 39.2 °F 87% 29.90 in 10.0 mi North 6.9 mph - N/A   Overcast
8:16 PM 42.8 °F 40.1 °F 37.4 °F 81% 29.90 in 10.0 mi North 4.6 mph - N/A   Overcast
8:36 PM 42.8 °F 40.1 °F 37.4 °F 81% 29.89 in 10.0 mi NNW 4.6 mph - N/A   Overcast
8:56 PM 42.8 °F 39.3 °F 37.4 °F 81% 29.90 in 10.0 mi NNW 5.8 mph - N/A   Mostly Cloudy
9:16 PM 42.8 °F 39.3 °F 37.4 °F 81% 29.90 in 10.0 mi NNW 5.8 mph - N/A   Mostly Cloudy
9:36 PM 42.8 °F 40.1 °F 37.4 °F 81% 29.90 in 10.0 mi NNW 4.6 mph - N/A   Overcast
9:56 PM 42.8 °F 39.3 °F 37.4 °F 81% 29.90 in 10.0 mi North 5.8 mph - N/A   Overcast
10:16 PM 42.8 °F 38.6 °F 37.4 °F 81% 29.90 in 10.0 mi NNE 6.9 mph - N/A   Overcast
10:36 PM 42.8 °F 39.3 °F 37.4 °F 81% 29.90 in 10.0 mi NNE 5.8 mph - N/A   Overcast
10:56 PM 42.8 °F 40.1 °F 37.4 °F 81% 29.90 in 10.0 mi North 4.6 mph - N/A   Overcast
11:16 PM 42.8 °F - 37.4 °F 81% 29.91 in 10.0 mi Calm Calm - N/A   Overcast
11:36 PM 42.8 °F 41.1 °F 37.4 °F 81% 29.91 in 10.0 mi North 3.5 mph - N/A   Overcast
11:56 PM 42.8 °F 40.1 °F 37.4 °F 81% 29.91 in 10.0 mi NW 4.6 mph - N/A   Overcast